Location: Quail Creek Observatory
(32.9410°N, 97.1240°W)
Time: 13:48:21
(UTC-06:00)

Daily predictions for brighter satellites

Satellite Brightness Start Highest point End
(mag) Time Altitude Azimuth Time Altitude Azimuth Time Altitude Azimuth
Cosmos 372 Rocket 4.5 18:10:00 10° N 18:14:42 36° ENE 18:19:23 10° SE
Cosmos 1844 3.8 18:10:40 10° NNW 18:16:29 89° E 18:22:17 10° SSE
Cosmos 540 Rocket 3.6 18:11:53 10° SSW 18:17:03 81° WNW 18:22:15 10° NNE
Atlas Centaur 2 4.2 18:13:34 10° W 18:18:08 24° SSW 18:21:57 10° SSE
OAO 1 Rocket 4.5 18:16:25 10° W 18:21:43 72° N 18:27:02 10° E
Cosmos 2237 Rocket 2.6 18:17:41 10° SSW 18:23:15 67° WNW 18:28:52 10° NNE
Sich 1 4.3 18:20:05 10° SE 18:23:28 22° E 18:26:51 10° NE
Cosmos 1340 Rocket 3.0 18:20:20 10° S 18:24:08 49° E 18:27:57 10° NNE
SL-14 R/B 3.3 18:21:18 10° S 18:25:12 85° W 18:29:11 10° N
Cosmos 1300 2.6 18:23:38 10° N 18:27:28 73° E 18:31:17 10° SSE
USA 215 4.3 18:22:43 10° E 18:27:51 25° NNE 18:32:59 10° NNW
Cosmos 1484 Rocket 2.7 18:24:38 10° SSE 18:28:30 68° ENE 18:32:27 10° N
Cosmos 2058 2.8 18:24:33 10° S 18:28:38 74° E 18:32:43 10° N
Cosmos 1461 2.9 18:24:29 10° SSW 18:28:42 66° ESE 18:32:47 10° NE
SL-16 R/B 2.3 18:24:43 10° S 18:30:12 55° ESE 18:35:43 10° NNE
Cosmos 1633 Rocket 4.2 18:27:28 10° SE 18:30:55 23° E 18:34:22 10° NE
Cosmos 304 Rocket 3.7 18:33:00 10° S 18:37:48 77° ESE 18:42:36 10° NNE
Cosmos 1634 Rocket 4.3 18:32:45 10° N 18:38:55 71° W 18:45:01 10° S
BREEZE-M DEB (TANK) 3.7 18:39:41 10° W 18:41:56 24° NW 18:44:01 10° NNE
Cosmos 2297 4.1 18:40:51 10° N 18:46:11 39° ENE 18:51:31 10° SE
Hubble Space Telescope 3.6 18:44:32 10° SW 18:46:11 12° SSW 18:47:50 10° S
OTV 4 0.7 18:45:38 10° WNW 18:48:34 64° SSW 18:50:55 14° ESE
BREEZE-M DEB (TANK) 4.2 18:49:08 10° NW 18:49:52 11° NW 18:50:32 10° NNW
Cosmos 1356 Rocket 3.4 18:46:25 10° S 18:50:18 52° E 18:54:11 10° NNE
Meteor 1-28 Rocket 3.3 18:48:22 10° N 18:52:05 78° WNW 18:55:48 10° SSW
Coronas F rocket 3.1 18:54:10 10° SSE 18:54:53 16° SE 18:54:53 16° SE
Aureole 1 Rocket 3.9 18:53:12 10° S 18:57:51 46° E 19:03:57 10° NNE
COSMO-SKYMED 1 3.7 18:54:36 10° N 18:58:44 45° WNW 19:02:52 10° SW
CZ-3A R/B 3.7 18:54:41 10° NNW 18:58:46 28° NE 19:01:31 20° E
Transit 2A Rocket 4.4 18:54:44 10° NNW 18:59:02 80° ENE 19:03:24 10° SSE
Cosmos 1125 Rocket 4.4 18:54:03 10° NNW 18:59:04 51° WSW 19:04:04 10° S
Cosmos 1707 Rocket 3.6 18:54:58 10° N 18:59:10 50° E 19:03:23 10° SSE
Meteor 2-10 4.2 18:55:45 10° N 19:00:53 78° W 19:06:10 10° S
Spot 2 Rocket 4.4 18:57:41 10° SE 19:01:48 26° ENE 19:05:55 10° NNE
Resurs 01 Rocket 2.9 19:03:50 22° NE 19:03:50 22° NE 19:06:16 10° NNE
Cosmos 1184 Rocket 2.8 19:01:26 10° S 19:04:43 58° E 19:06:41 22° NNE
Cosmos 1666 Rocket 3.4 19:00:47 10° S 19:05:05 76° E 19:09:27 10° N
USA 229 DEB 3.7 19:00:00 10° SSW 19:06:43 63° ESE 19:12:13 16° NE
USA 229 3.7 19:00:06 10° SSW 19:06:49 62° ESE 19:12:16 17° NE
FENGYUN 3A 4.2 19:02:22 10° SE 19:07:05 33° ENE 19:11:49 10° N
Lacrosse 5 rocket 1.1 19:03:59 10° NNW 19:07:50 69° NE 19:10:49 17° SE
Tiangong 1 2.3 19:06:09 10° SSW 19:08:40 25° SE 19:08:40 25° SE
BREEZE M DEB (TANK) 3.6 19:09:15 10° NNW 19:09:42 13° N 19:09:42 13° N
METEOR-M 4.0 19:06:45 10° SSE 19:12:04 74° ENE 19:17:25 10° N
Cosmos 1538 Rocket 4.2 19:09:27 10° SSW 19:14:42 72° WNW 19:20:02 10° NNE
Cosmos 1933 Rocket 4.3 19:12:44 10° SSE 19:16:12 32° ESE 19:16:12 32° ESE
Iridium 4 Rocket 3.2 19:12:29 10° SSE 19:16:59 50° E 19:19:42 21° NNE
Timation 1 Rocket 4.3 19:12:42 10° NNW 19:18:45 86° ENE 19:24:45 10° SSE
Cosmos 923 Rocket 4.0 19:17:25 10° S 19:22:30 56° ESE 19:24:48 31° NE
ALOS 2.5 19:18:12 10° SE 19:22:39 46° ENE 19:27:05 10° N
BREEZE-M DEB (TANK) 3.3 19:21:28 10° W 19:22:37 27° NW 19:22:37 27° NW
FengYun 1-2 T 4.3 19:20:32 10° SSE 19:25:56 54° ENE 19:31:18 10° N
Cosmos 1626 3.4 19:23:17 10° SSW 19:26:50 42° W 19:30:25 10° N
NOAA 12 4.3 19:22:46 10° S 19:27:58 70° WSW 19:33:13 10° NNW
Cosmos 1680 Rocket 3.6 19:24:48 10° S 19:29:47 48° ESE 19:30:32 45° ENE
SJ-6B 3.1 19:27:45 10° S 19:31:47 70° W 19:35:54 10° NNW
Cosmos 292 Rocket 3.6 19:29:27 10° S 19:34:07 63° ESE 19:34:49 55° ENE
Cosmos 1603 3.5 19:29:08 10° S 19:34:43 71° ESE 19:36:59 36° NE
Intelsat 5-1 Rocket 3.8 19:34:33 10° SW 19:37:02 20° S 19:38:07 19° SSE
Cosmos 1470 Rocket 3.4 19:33:38 10° S 19:37:52 69° ESE 19:37:52 69° ESE
Cosmos 2242 Rocket 3.4 19:36:09 10° N 19:40:36 78° E 19:45:02 10° S
Cosmos 1455 2.9 19:39:54 10° NNW 19:43:36 54° W 19:47:20 10° S
Cosmos 2026 Rocket 3.9 19:40:27 10° S 19:46:32 58° E 19:47:47 49° NE
Helios 1B rocket 4.2 19:56:26 23° S 19:56:26 23° S 19:58:01 10° S
NOSS 3-1 (C) 3.6 19:54:07 10° SSW 19:58:31 48° SSE 19:58:31 48° SSE
Cosmos 2112 Rocket 4.1 20:00:23 10° SSW 20:04:55 69° SSW 20:04:55 69° SSW
USA 215 3.1 20:08:59 62° SE 20:10:14 89° NE 20:16:49 10° NW
Meteor 2-20 4.4 20:08:47 10° S 20:14:28 79° SSW 20:14:28 79° SSW
Milstar 3 4.5 20:30:39 10° WSW 20:36:06 25° SSW 20:38:29 22° S
Resurs 01 Rocket 4.2 20:35:27 10° SSW 20:41:23 16° NW 20:42:38 10° NW
